When you browse on this site, cookies collect data to enhance your experience and personalize the content and advertising you see.
Visit our Privacy Policy to learn more. By continuing to use the site, you agree to this use of cookies and data.
  • In Deutschland
  • Länderverzeichnis
  • Für 7 Tage
  • Wassertemperatur
  • Wetterkarte
  • Widgets
  • user-avatar
    Anmelden

    Stündliche Wetter Novoasbest

    Heute, 16 Oktober, Mittwoch

    Zeit Temperatur Niederschläge Wind Luftdruck Luftfeuchtigkeit
    00:00 0°C° 0 mm 3 m/S 729 mmHg 89%
    01:00 0°C° 0 mm 3 m/S 729 mmHg 88%
    02:00 -1°C° 0 mm 3 m/S 730 mmHg 89%
    03:00 -1°C° 0 mm 3 m/S 730 mmHg 89%
    04:00 -1°C° 0 mm 3 m/S 730 mmHg 89%
    05:00 -1°C° 0.1 mm 3 m/S 731 mmHg 90%
    06:00 -1°C° 0.1 mm 4 m/S 731 mmHg 90%
    07:00 -1°C° 0.1 mm 4 m/S 731 mmHg 91%
    08:00 -1°C° 0.1 mm 4 m/S 732 mmHg 88%
    09:00 0°C° 0.1 mm 4 m/S 732 mmHg 85%
    10:00 0°C° 0.1 mm 4 m/S 733 mmHg 83%
    11:00 0°C° 0 mm 4 m/S 733 mmHg 79%
    12:00 +1°C° 0 mm 4 m/S 733 mmHg 75%
    13:00 +1°C° 0 mm 4 m/S 734 mmHg 72%
    14:00 +1°C° 0 mm 4 m/S 734 mmHg 72%
    15:00 +1°C° 0 mm 4 m/S 735 mmHg 73%
    16:00 0°C° 0 mm 4 m/S 736 mmHg 73%
    17:00 0°C° 0 mm 4 m/S 736 mmHg 75%
    18:00 -1°C° 0 mm 4 m/S 737 mmHg 76%
    19:00 -2°C° 0 mm 4 m/S 737 mmHg 78%
    20:00 -2°C° 0 mm 4 m/S 737 mmHg 79%
    21:00 -2°C° 0 mm 4 m/S 738 mmHg 81%
    22:00 -3°C° 0 mm 4 m/S 738 mmHg 82%
    23:00 -3°C° 0 mm 4 m/S 738 mmHg 81%

    Morgen, 17 Oktober, Donnerstag

    Zeit Temperatur Niederschläge Wind Luftdruck Luftfeuchtigkeit
    00:00 -3°C° 0 mm 4 m/S 739 mmHg 81%
    01:00 -2°C° 0 mm 3 m/S 739 mmHg 80%
    02:00 -2°C° 0 mm 3 m/S 739 mmHg 80%
    03:00 -2°C° 0 mm 3 m/S 740 mmHg 80%
    04:00 -2°C° 0 mm 3 m/S 740 mmHg 80%
    05:00 -2°C° 0 mm 3 m/S 740 mmHg 81%
    06:00 -2°C° 0 mm 3 m/S 741 mmHg 82%
    07:00 -2°C° 0 mm 3 m/S 741 mmHg 83%
    08:00 -2°C° 0 mm 3 m/S 741 mmHg 79%
    09:00 -1°C° 0 mm 3 m/S 741 mmHg 75%
    10:00 0°C° 0 mm 3 m/S 741 mmHg 70%
    11:00 0°C° 0 mm 3 m/S 741 mmHg 70%
    12:00 0°C° 0 mm 3 m/S 741 mmHg 70%
    13:00 0°C° 0 mm 3 m/S 741 mmHg 70%
    14:00 0°C° 0 mm 3 m/S 741 mmHg 70%
    15:00 0°C° 0 mm 3 m/S 741 mmHg 71%
    16:00 -1°C° 0 mm 2 m/S 740 mmHg 71%
    17:00 -1°C° 0 mm 2 m/S 740 mmHg 76%
    18:00 -1°C° 0 mm 2 m/S 740 mmHg 81%
    19:00 0°C° 0 mm 1 m/S 739 mmHg 86%
    20:00 0°C° 0.3 mm 1 m/S 739 mmHg 90%
    21:00 0°C° 0.3 mm 1 m/S 739 mmHg 93%
    22:00 0°C° 0.3 mm 1 m/S 738 mmHg 97%
    23:00 0°C° 0.5 mm 1 m/S 737 mmHg 97%

    übermorgen, 18 Oktober, Freitag

    Zeit Temperatur Niederschläge Wind Luftdruck Luftfeuchtigkeit
    00:00 0°C° 0.5 mm 1 m/S 737 mmHg 97%
    01:00 -2°C° 0.5 mm 2 m/S 736 mmHg 97%
    02:00 -2°C° 0.3 mm 2 m/S 736 mmHg 97%
    03:00 -2°C° 0.3 mm 2 m/S 736 mmHg 97%
    04:00 -2°C° 0.3 mm 2 m/S 735 mmHg 97%
    05:00 -2°C° 0.2 mm 2 m/S 735 mmHg 97%
    06:00 -2°C° 0.2 mm 2 m/S 735 mmHg 97%
    07:00 -2°C° 0.2 mm 2 m/S 734 mmHg 97%
    08:00 -2°C° 0.3 mm 2 m/S 735 mmHg 95%
    09:00 -1°C° 0.3 mm 3 m/S 735 mmHg 94%
    10:00 -1°C° 0.3 mm 3 m/S 735 mmHg 93%
    11:00 -2°C° 0.3 mm 4 m/S 736 mmHg 92%
    12:00 -2°C° 0.3 mm 4 m/S 736 mmHg 91%
    13:00 -2°C° 0.3 mm 4 m/S 736 mmHg 91%
    14:00 -2°C° 0.1 mm 4 m/S 737 mmHg 89%
    15:00 -2°C° 0.1 mm 4 m/S 738 mmHg 87%
    16:00 -3°C° 0.1 mm 4 m/S 738 mmHg 85%
    17:00 -4°C° 0 mm 4 m/S 739 mmHg 86%
    18:00 -5°C° 0 mm 3 m/S 740 mmHg 87%
    19:00 -6°C° 0 mm 3 m/S 741 mmHg 88%
    20:00 -6°C° 0 mm 3 m/S 741 mmHg 90%
    21:00 -6°C° 0 mm 2 m/S 742 mmHg 92%
    22:00 -6°C° 0 mm 2 m/S 743 mmHg 93%
    23:00 -7°C° 0 mm 2 m/S 743 mmHg 94%

    19 Oktober, Samstag

    Zeit Temperatur Niederschläge Wind Luftdruck Luftfeuchtigkeit
    00:00 -7°C° 0 mm 2 m/S 743 mmHg 95%
    01:00 -7°C° 0 mm 2 m/S 744 mmHg 95%
    02:00 -7°C° 0 mm 1 m/S 744 mmHg 95%
    03:00 -7°C° 0 mm 1 m/S 745 mmHg 95%
    04:00 -7°C° 0 mm 1 m/S 745 mmHg 95%
    05:00 -7°C° 0 mm 1 m/S 746 mmHg 95%
    06:00 -7°C° 0 mm 1 m/S 746 mmHg 95%
    07:00 -7°C° 0 mm 1 m/S 746 mmHg 94%
    08:00 -6°C° 0 mm 1 m/S 747 mmHg 86%
    09:00 -3°C° 0 mm 1 m/S 747 mmHg 78%
    10:00 -1°C° 0 mm 1 m/S 747 mmHg 69%
    11:00 -2°C° 0 mm 0 m/S 747 mmHg 66%
    12:00 -1°C° 0 mm 0 m/S 747 mmHg 62%
    13:00 0°C° 0 mm 0 m/S 747 mmHg 59%
    14:00 -1°C° 0 mm 0 m/S 747 mmHg 62%
    15:00 -1°C° 0 mm 0 m/S 747 mmHg 66%
    16:00 -1°C° 0 mm 1 m/S 747 mmHg 70%
    17:00 -2°C° 0 mm 1 m/S 747 mmHg 74%
    18:00 -3°C° 0 mm 1 m/S 747 mmHg 78%
    19:00 -4°C° 0 mm 1 m/S 747 mmHg 82%
    20:00 -4°C° 0 mm 1 m/S 747 mmHg 83%
    21:00 -4°C° 0 mm 1 m/S 747 mmHg 85%
    22:00 -6°C° 0 mm 2 m/S 747 mmHg 86%
    23:00 -7°C° 0 mm 2 m/S 747 mmHg 87%

    20 Oktober, Sonntag

    Zeit Temperatur Niederschläge Wind Luftdruck Luftfeuchtigkeit
    00:00 -7°C° 0 mm 2 m/S 747 mmHg 88%
    01:00 -7°C° 0 mm 2 m/S 747 mmHg 88%
    02:00 -7°C° 0 mm 2 m/S 747 mmHg 88%
    03:00 -7°C° 0 mm 2 m/S 747 mmHg 88%
    04:00 -6°C° 0 mm 1 m/S 747 mmHg 88%
    05:00 -6°C° 0 mm 1 m/S 747 mmHg 87%
    06:00 -7°C° 0 mm 2 m/S 747 mmHg 86%
    07:00 -7°C° 0 mm 2 m/S 746 mmHg 86%
    08:00 -6°C° 0 mm 2 m/S 746 mmHg 82%
    09:00 -4°C° 0 mm 2 m/S 746 mmHg 78%
    10:00 -2°C° 0 mm 3 m/S 746 mmHg 74%
    11:00 -1°C° 0 mm 3 m/S 746 mmHg 73%
    12:00 0°C° 0 mm 3 m/S 746 mmHg 72%
    13:00 0°C° 0 mm 4 m/S 746 mmHg 71%
    14:00 +1°C° 0 mm 3 m/S 745 mmHg 74%
    15:00 0°C° 0 mm 3 m/S 745 mmHg 77%
    16:00 -1°C° 0 mm 3 m/S 745 mmHg 80%
    17:00 -1°C° 0 mm 3 m/S 745 mmHg 82%
    18:00 -2°C° 0 mm 3 m/S 745 mmHg 84%
    19:00 -3°C° 0 mm 4 m/S 745 mmHg 85%
    20:00 -3°C° 0 mm 4 m/S 745 mmHg 87%
    21:00 -2°C° 0 mm 3 m/S 745 mmHg 89%
    22:00 -2°C° 0 mm 3 m/S 745 mmHg 90%
    23:00 -2°C° 0 mm 3 m/S 745 mmHg 91%

    21 Oktober, Montag

    Zeit Temperatur Niederschläge Wind Luftdruck Luftfeuchtigkeit
    00:00 -2°C° 0 mm 3 m/S 744 mmHg 91%
    01:00 -2°C° 0 mm 3 m/S 744 mmHg 92%
    02:00 -2°C° 0 mm 3 m/S 744 mmHg 91%
    03:00 -2°C° 0 mm 3 m/S 744 mmHg 91%
    04:00 -2°C° 0 mm 3 m/S 744 mmHg 91%
    05:00 -2°C° 0 mm 3 m/S 744 mmHg 91%
    06:00 -2°C° 0 mm 3 m/S 744 mmHg 91%
    07:00 -2°C° 0 mm 3 m/S 744 mmHg 91%
    08:00 -1°C° 0 mm 3 m/S 744 mmHg 88%
    09:00 +1°C° 0 mm 3 m/S 744 mmHg 84%
    10:00 +2°C° 0 mm 3 m/S 743 mmHg 81%
    11:00 +2°C° 0 mm 3 m/S 743 mmHg 80%
    12:00 +2°C° 0 mm 3 m/S 743 mmHg 80%
    13:00 +3°C° 0 mm 3 m/S 743 mmHg 80%
    14:00 +3°C° 0 mm 4 m/S 742 mmHg 82%
    15:00 +1°C° 0 mm 4 m/S 742 mmHg 84%
    16:00 +1°C° 0 mm 4 m/S 742 mmHg 85%
    17:00 +1°C° 0.1 mm 4 m/S 741 mmHg 86%
    18:00 +1°C° 0.1 mm 4 m/S 741 mmHg 87%
    19:00 +1°C° 0.1 mm 5 m/S 741 mmHg 87%
    20:00 +1°C° 0.1 mm 5 m/S 740 mmHg 88%
    21:00 +1°C° 0.1 mm 5 m/S 740 mmHg 89%
    22:00 +1°C° 0.1 mm 5 m/S 739 mmHg 90%
    23:00 +2°C° 0.1 mm 5 m/S 739 mmHg 90%
    Mehr zeigen